TimeEDT,TemperatureF,Dew PointF,Humidity,Sea Level PressureIn,VisibilityMPH,Wind Direction,Wind SpeedMPH,Gust SpeedMPH,PrecipitationIn,Events,Conditions,WindDirDegrees,DateUTC
12:53 AM,63.0,55.0,75,30.10,10.0,ESE,6.9,-,N/A,,Clear,110,2013-03-11 04:53:00
1:53 AM,62.1,55.0,78,30.10,10.0,ESE,4.6,-,N/A,,Clear,110,2013-03-11 05:53:00
2:53 AM,61.0,55.0,81,30.07,10.0,East,4.6,-,N/A,,Clear,100,2013-03-11 06:53:00
3:53 AM,60.1,55.0,83,30.06,10.0,East,3.5,-,N/A,,Clear,90,2013-03-11 07:53:00
4:53 AM,60.1,55.9,86,30.04,10.0,East,4.6,-,N/A,,Scattered Clouds,80,2013-03-11 08:53:00
5:53 AM,60.1,55.9,86,30.02,10.0,East,3.5,-,N/A,,Clear,90,2013-03-11 09:53:00
6:53 AM,60.1,55.9,86,30.03,10.0,East,5.8,-,N/A,,Clear,90,2013-03-11 10:53:00
7:53 AM,61.0,57.0,87,30.03,10.0,East,6.9,-,N/A,,Clear,100,2013-03-11 11:53:00
8:53 AM,64.0,57.9,80,30.04,10.0,ESE,6.9,-,N/A,,Clear,110,2013-03-11 12:53:00
9:53 AM,69.1,59.0,70,30.05,10.0,SE,9.2,-,N/A,,Clear,130,2013-03-11 13:53:00
10:53 AM,73.9,57.0,55,30.04,10.0,SE,13.8,25.3,N/A,,Clear,130,2013-03-11 14:53:00
11:53 AM,77.0,55.0,47,30.03,10.0,SE,16.1,24.2,N/A,,Partly Cloudy,140,2013-03-11 15:53:00
12:53 PM,79.0,55.9,45,30.03,10.0,South,11.5,18.4,N/A,,Mostly Cloudy,190,2013-03-11 16:53:00
1:53 PM,78.1,55.0,45,30.04,10.0,SW,10.4,17.3,N/A,,Overcast,220,2013-03-11 17:53:00
2:53 PM,80.1,55.0,42,30.01,10.0,SSW,11.5,-,N/A,,Mostly Cloudy,210,2013-03-11 18:53:00
3:53 PM,78.1,57.9,50,29.98,10.0,SSW,9.2,17.3,N/A,,Partly Cloudy,200,2013-03-11 19:53:00
4:53 PM,79.0,57.0,47,29.94,10.0,SSW,10.4,20.7,N/A,,Clear,200,2013-03-11 20:53:00
5:53 PM,78.1,57.0,48,29.94,10.0,SSW,13.8,19.6,N/A,,Clear,210,2013-03-11 21:53:00
7:53 PM,72.0,59.0,64,29.97,10.0,SSW,9.2,-,N/A,,Scattered Clouds,210,2013-03-11 23:53:00
8:53 PM,70.0,61.0,73,29.96,10.0,South,6.9,-,N/A,,Clear,190,2013-03-12 00:53:00
9:53 PM,70.0,61.0,73,29.97,10.0,South,6.9,-,N/A,,Clear,170,2013-03-12 01:53:00
10:53 PM,70.0,61.0,73,29.98,10.0,SSE,9.2,-,N/A,,Clear,160,2013-03-12 02:53:00
11:53 PM,69.1,61.0,75,29.98,10.0,SSE,5.8,-,N/A,,Clear,150,2013-03-12 03:53:00